| time (UTC) | temp C | wind direction | speed KPH | gust KPH | rain 1hr cm | rain 24hr cm | rain mn cm | humidity % | barometer mb |
| 20260901014604 | 31 | 0 | 0.0 | 0.0 | 0.00 | 0.00 | 0.00 | 47 | 1013.2 |
| 20260901014054 | 31 | 0 | 0.0 | 1.6 | 0.00 | 0.00 | 0.00 | 46 | 1013.3 |
| 20260901013554 | 32 | 0 | 0.0 | 1.6 | 0.00 | 0.00 | 0.00 | 45 | 1013.3 |
| 20260901013119 | 32 | 0 | 0.0 | 1.6 | 0.00 | 0.00 | 0.00 | 45 | 1013.3 |
| 20260901012555 | 32 | 0 | 0.0 | 3.2 | 0.00 | 0.00 | 0.00 | 44 | 1013.3 |
| 20260901012054 | 33 | 0 | 0.0 | 4.8 | 0.00 | 0.00 | 0.00 | 43 | 1013.2 |
| 20260901011559 | 33 | 0 | 0.0 | 4.8 | 0.00 | 0.00 | 0.00 | 42 | 1013.1 |
| 20260901011054 | 33 | 0 | 0.0 | 4.8 | 0.00 | 0.00 | 0.00 | 42 | 1013.0 |
| 20260901010555 | 33 | 0 | 0.0 | 4.8 | 0.00 | 0.00 | 0.00 | 41 | 1013.0 |
| 20260901010059 | 33 | 59 | 1.6 | 4.8 | 0.00 | 0.00 | 0.00 | 41 | 1013.1 |
| 20260901005554 | 33 | 96 | 0.0 | 3.2 | 0.00 | 0.00 | 0.00 | 41 | 1013.0 |
| 20260901005053 | 33 | 0 | 0.0 | 6.4 | 0.00 | 0.00 | 0.00 | 40 | 1013.0 |
| 20260901004605 | 34 | 0 | 0.0 | 6.4 | 0.00 | 0.00 | 0.00 | 40 | 1013.0 |
| 20260901004053 | 34 | 0 | 0.0 | 4.8 | 0.00 | 0.00 | 0.00 | 39 | 1012.9 |
| 20260901003553 | 34 | 0 | 0.0 | 4.8 | 0.00 | 0.00 | 0.00 | 39 | 1013.0 |
| 20260901003105 | 35 | 0 | 1.6 | 4.8 | 0.00 | 0.00 | 0.00 | 38 | 1012.8 |
| 20260901002555 | 35 | 199 | 0.0 | 4.8 | 0.00 | 0.00 | 0.00 | 37 | 1012.9 |
| 20260901002055 | 35 | 0 | 1.6 | 8.0 | 0.00 | 0.00 | 0.00 | 37 | 1012.9 |
| 20260901001606 | 35 | 69 | 0.0 | 8.0 | 0.00 | 0.00 | 0.00 | 37 | 1012.9 |
| 20260901001058 | 35 | 62 | 1.6 | 6.4 | 0.00 | 0.00 | 0.00 | 36 | 1013.0 |
| 20260901000555 | 35 | 171 | 1.6 | 6.4 | 0.00 | 0.00 | 0.00 | 36 | 1012.9 |
| 20260901000106 | 36 | 49 | 1.6 | 9.7 | 0.00 | 0.00 | 0.00 | 36 | 1012.8 |
| 20260831235555 | 36 | 133 | 0.0 | 9.7 | 0.00 | 0.00 | 0.00 | 35 | 1012.9 |
| 20260831235056 | 36 | 0 | 1.6 | 9.7 | 0.00 | 0.00 | 0.00 | 35 | 1013.0 |
| 20260831234602 | 36 | 67 | 1.6 | 9.7 | 0.00 | 0.00 | 0.00 | 34 | 1013.0 |
| 20260831234055 | 36 | 51 | 0.0 | 9.7 | 0.00 | 0.00 | 0.00 | 34 | 1013.1 |
| 20260831233554 | 36 | 0 | 3.2 | 9.7 | 0.00 | 0.00 | 0.00 | 33 | 1012.9 |
| 20260831233102 | 36 | 211 | 1.6 | 8.0 | 0.00 | 0.00 | 0.00 | 32 | 1013.1 |
| 20260831232553 | 36 | 0 | 1.6 | 6.4 | 0.00 | 0.00 | 0.00 | 32 | 1013.1 |
| 20260831232053 | 36 | 59 | 1.6 | 6.4 | 0.00 | 0.00 | 0.00 | 32 | 1013.0 |
| 20260831231627 | 36 | 46 | 1.6 | 6.4 | 0.00 | 0.00 | 0.00 | 33 | 1013.1 |
| 20260831231054 | 36 | 0 | 0.0 | 11.3 | 0.00 | 0.00 | 0.00 | 32 | 1013.0 |
| 20260831230554 | 36 | 219 | 1.6 | 11.3 | 0.00 | 0.00 | 0.00 | 31 | 1012.9 |
| 20260831230105 | 36 | 235 | 3.2 | 11.3 | 0.00 | 0.00 | 0.00 | 31 | 1013.1 |
| 20260831225553 | 36 | 107 | 1.6 | 8.0 | 0.00 | 0.00 | 0.00 | 32 | 1013.0 |
| 20260831225054 | 36 | 239 | 1.6 | 8.0 | 0.00 | 0.00 | 0.00 | 31 | 1013.0 |
| 20260831224637 | 36 | 192 | 1.6 | 11.3 | 0.00 | 0.00 | 0.00 | 31 | 1012.9 |
| 20260831224054 | 36 | 174 | 1.6 | 11.3 | 0.00 | 0.00 | 0.00 | 32 | 1012.9 |
| 20260831223554 | 37 | 211 | 3.2 | 11.3 | 0.00 | 0.00 | 0.00 | 31 | 1013.1 |
| 20260831223102 | 37 | 47 | 3.2 | 8.0 | 0.00 | 0.00 | 0.00 | 32 | 1013.1 |
| 20260831222553 | 36 | 69 | 0.0 | 8.0 | 0.00 | 0.00 | 0.00 | 32 | 1013.1 |
| 20260831222051 | 36 | 67 | 1.6 | 8.0 | 0.00 | 0.00 | 0.00 | 32 | 1013.2 |
| 20260831221614 | 37 | 206 | 1.6 | 12.9 | 0.00 | 0.00 | 0.00 | 33 | 1013.0 |
| 20260831221054 | 37 | 0 | 3.2 | 12.9 | 0.00 | 0.00 | 0.00 | 32 | 1013.0 |
| 20260831220554 | 37 | 236 | 1.6 | 12.9 | 0.00 | 0.00 | 0.00 | 32 | 1013.3 |
| 20260831220107 | 37 | 215 | 1.6 | 9.7 | 0.00 | 0.00 | 0.00 | 32 | 1013.2 |
| 20260831215554 | 37 | 155 | 1.6 | 9.7 | 0.00 | 0.00 | 0.00 | 32 | 1013.2 |
| 20260831215054 | 37 | 65 | 1.6 | 9.7 | 0.00 | 0.00 | 0.00 | 33 | 1013.3 |
| 20260831214605 | 37 | 219 | 1.6 | 9.7 | 0.00 | 0.00 | 0.00 | 31 | 1013.4 |
| 20260831214056 | 38 | 237 | 1.6 | 9.7 | 0.00 | 0.00 | 0.00 | 31 | 1013.3 |
| 20260831213555 | 37 | 57 | 1.6 | 11.3 | 0.00 | 0.00 | 0.00 | 32 | 1013.4 |
| 20260831213101 | 38 | 57 | 1.6 | 11.3 | 0.00 | 0.00 | 0.00 | 33 | 1013.6 |
| 20260831212556 | 38 | 0 | 3.2 | 11.3 | 0.00 | 0.00 | 0.00 | 33 | 1013.5 |
| 20260831212058 | 37 | 19 | 3.2 | 9.7 | 0.00 | 0.00 | 0.00 | 33 | 1013.6 |
| 20260831211610 | 38 | 223 | 1.6 | 11.3 | 0.00 | 0.00 | 0.00 | 33 | 1013.5 |
| 20260831211054 | 38 | 44 | 3.2 | 11.3 | 0.00 | 0.00 | 0.00 | 34 | 1013.8 |
| 20260831210554 | 37 | 47 | 1.6 | 12.9 | 0.00 | 0.00 | 0.00 | 39 | 1013.8 |
| 20260831210103 | 37 | 130 | 1.6 | 12.9 | 0.00 | 0.00 | 0.00 | 34 | 1013.7 |
| 20260831205554 | 38 | 64 | 4.8 | 12.9 | 0.00 | 0.00 | 0.00 | 33 | 1013.9 |
| 20260831205054 | 38 | 89 | 3.2 | 11.3 | 0.00 | 0.00 | 0.00 | 33 | 1013.8 |
| 20260831204604 | 38 | 239 | 1.6 | 11.3 | 0.00 | 0.00 | 0.00 | 33 | 1013.7 |
| 20260831204055 | 38 | 250 | 3.2 | 11.3 | 0.00 | 0.00 | 0.00 | 34 | 1014.0 |
| 20260831203556 | 38 | 223 | 3.2 | 11.3 | 0.00 | 0.00 | 0.00 | 35 | 1013.9 |
| 20260831203105 | 37 | 60 | 3.2 | 11.3 | 0.00 | 0.00 | 0.00 | 35 | 1014.3 |
| 20260831202555 | 38 | 71 | 3.2 | 11.3 | 0.00 | 0.00 | 0.00 | 34 | 1014.2 |
| 20260831202054 | 39 | 155 | 1.6 | 14.5 | 0.00 | 0.00 | 0.00 | 33 | 1014.3 |
| 20260831201602 | 38 | 232 | 3.2 | 14.5 | 0.00 | 0.00 | 0.00 | 34 | 1014.4 |
| 20260831201056 | 38 | 153 | 3.2 | 9.7 | 0.00 | 0.00 | 0.00 | 35 | 1014.5 |
| 20260831200555 | 38 | 75 | 1.6 | 12.9 | 0.00 | 0.00 | 0.00 | 34 | 1014.5 |
| 20260831200105 | 38 | 134 | 1.6 | 12.9 | 0.00 | 0.00 | 0.00 | 35 | 1014.5 |
| 20260831195559 | 38 | 92 | 4.8 | 12.9 | 0.00 | 0.00 | 0.00 | 34 | 1014.9 |
| 20260831195056 | 36 | 54 | 1.6 | 8.0 | 0.00 | 0.00 | 0.00 | 37 | 1014.8 |
| 20260831194620 | 36 | 0 | 1.6 | 9.7 | 0.00 | 0.00 | 0.00 | 38 | 1014.8 |
| 20260831194058 | 36 | 59 | 3.2 | 11.3 | 0.00 | 0.00 | 0.00 | 38 | 1015.0 |
| 20260831193557 | 36 | 115 | 1.6 | 11.3 | 0.00 | 0.00 | 0.00 | 38 | 1015.1 |
| 20260831193103 | 37 | 96 | 3.2 | 16.1 | 0.00 | 0.00 | 0.00 | 37 | 1015.1 |
| 20260831192555 | 37 | 180 | 4.8 | 16.1 | 0.00 | 0.00 | 0.00 | 36 | 1015.1 |
| 20260831192055 | 36 | 172 | 1.6 | 9.7 | 0.00 | 0.00 | 0.00 | 38 | 1015.0 |
| 20260831191603 | 37 | 65 | 3.2 | 9.7 | 0.00 | 0.00 | 0.00 | 37 | 1015.0 |
| 20260831191058 | 37 | 106 | 3.2 | 9.7 | 0.00 | 0.00 | 0.00 | 37 | 1015.2 |
| 20260831190556 | 36 | 209 | 1.6 | 9.7 | 0.00 | 0.00 | 0.00 | 37 | 1015.3 |
| 20260831190135 | 38 | 342 | 3.2 | 16.1 | 0.00 | 0.00 | 0.00 | 35 | 1015.3 |
| 20260831185556 | 38 | 244 | 1.6 | 16.1 | 0.00 | 0.00 | 0.00 | 36 | 1015.3 |
| 20260831185056 | 37 | 0 | 3.2 | 16.1 | 0.00 | 0.00 | 0.00 | 36 | 1015.3 |
| 20260831184603 | 37 | 13 | 3.2 | 9.7 | 0.00 | 0.00 | 0.00 | 36 | 1015.5 |
| 20260831184055 | 36 | 118 | 1.6 | 14.5 | 0.00 | 0.00 | 0.00 | 39 | 1015.5 |
| 20260831183557 | 36 | 168 | 3.2 | 14.5 | 0.00 | 0.00 | 0.00 | 37 | 1015.7 |
| 20260831183102 | 36 | 261 | 4.8 | 14.5 | 0.00 | 0.00 | 0.00 | 38 | 1015.6 |
| 20260831182557 | 36 | 149 | 3.2 | 11.3 | 0.00 | 0.00 | 0.00 | 37 | 1015.9 |
| 20260831182057 | 37 | 15 | 3.2 | 11.3 | 0.00 | 0.00 | 0.00 | 37 | 1015.9 |
| 20260831181610 | 38 | 348 | 1.6 | 14.5 | 0.00 | 0.00 | 0.00 | 35 | 1016.0 |
| 20260831181057 | 39 | 186 | 0.0 | 14.5 | 0.00 | 0.00 | 0.00 | 34 | 1016.0 |
| 20260831180555 | 38 | 57 | 3.2 | 14.5 | 0.00 | 0.00 | 0.00 | 37 | 1016.1 |
| 20260831180105 | 37 | 66 | 1.6 | 14.5 | 0.00 | 0.00 | 0.00 | 37 | 1016.1 |
| 20260831175555 | 37 | 26 | 1.6 | 14.5 | 0.00 | 0.00 | 0.00 | 39 | 1016.2 |
| 20260831175056 | 37 | 136 | 3.2 | 14.5 | 0.00 | 0.00 | 0.00 | 37 | 1016.3 |
| 20260831174605 | 36 | 191 | 3.2 | 14.5 | 0.00 | 0.00 | 0.00 | 38 | 1016.5 |
| 20260831174057 | 37 | 116 | 4.8 | 14.5 | 0.00 | 0.00 | 0.00 | 37 | 1016.5 |
| 20260831173559 | 36 | 159 | 3.2 | 11.3 | 0.00 | 0.00 | 0.00 | 37 | 1016.7 |
| 20260831173101 | 36 | 196 | 3.2 | 11.3 | 0.00 | 0.00 | 0.00 | 38 | 1016.8 |
| 20260831172558 | 37 | 14 | 3.2 | 11.3 | 0.00 | 0.00 | 0.00 | 39 | 1016.7 |
| 20260831172055 | 36 | 67 | 1.6 | 12.9 | 0.00 | 0.00 | 0.00 | 42 | 1016.8 |
| 20260831171605 | 36 | 219 | 3.2 | 12.9 | 0.00 | 0.00 | 0.00 | 39 | 1017.1 |
| 20260831171056 | 37 | 88 | 1.6 | 9.7 | 0.00 | 0.00 | 0.00 | 39 | 1017.2 |
| 20260831170555 | 36 | 50 | 3.2 | 9.7 | 0.00 | 0.00 | 0.00 | 39 | 1017.0 |
| 20260831170106 | 36 | 293 | 3.2 | 8.0 | 0.00 | 0.00 | 0.00 | 40 | 1017.0 |
| 20260831165556 | 36 | 63 | 1.6 | 9.7 | 0.00 | 0.00 | 0.00 | 39 | 1017.0 |
| 20260831165056 | 36 | 43 | 3.2 | 12.9 | 0.00 | 0.00 | 0.00 | 41 | 1017.1 |
| 20260831164616 | 35 | 127 | 3.2 | 14.5 | 0.00 | 0.00 | 0.00 | 41 | 1017.0 |
| 20260831164056 | 35 | 41 | 3.2 | 14.5 | 0.00 | 0.00 | 0.00 | 42 | 1017.1 |
| 20260831163556 | 35 | 360 | 3.2 | 12.9 | 0.00 | 0.00 | 0.00 | 43 | 1017.0 |
| 20260831163100 | 35 | 36 | 1.6 | 11.3 | 0.00 | 0.00 | 0.00 | 44 | 1017.2 |
| 20260831162557 | 35 | 61 | 3.2 | 11.3 | 0.00 | 0.00 | 0.00 | 44 | 1017.0 |
| 20260831162057 | 35 | 37 | 1.6 | 6.4 | 0.00 | 0.00 | 0.00 | 45 | 1017.1 |
| 20260831161601 | 35 | 32 | 1.6 | 8.0 | 0.00 | 0.00 | 0.00 | 45 | 1017.1 |
| 20260831161058 | 35 | 61 | 1.6 | 8.0 | 0.00 | 0.00 | 0.00 | 47 | 1017.0 |
| 20260831160555 | 35 | 103 | 1.6 | 9.7 | 0.00 | 0.00 | 0.00 | 46 | 1017.2 |
| 20260831155555 | 35 | 51 | 1.6 | 12.9 | 0.00 | 0.00 | 0.00 | 48 | 1017.1 |
| 20260831155055 | 34 | 130 | 3.2 | 8.0 | 0.00 | 0.00 | 0.00 | 48 | 1017.1 |
| 20260831154643 | 33 | 51 | 1.6 | 8.0 | 0.00 | 0.00 | 0.00 | 49 | 1017.1 |
| 20260831154055 | 33 | 52 | 3.2 | 8.0 | 0.00 | 0.00 | 0.00 | 50 | 1017.0 |
| 20260831153555 | 34 | 99 | 0.0 | 8.0 | 0.00 | 0.00 | 0.00 | 53 | 1017.0 |
| 20260831153104 | 33 | 59 | 1.6 | 8.0 | 0.00 | 0.00 | 0.00 | 53 | 1017.0 |
| 20260831152557 | 32 | 0 | 3.2 | 8.0 | 0.00 | 0.00 | 0.00 | 55 | 1016.9 |
| 20260831152055 | 33 | 65 | 1.6 | 6.4 | 0.00 | 0.00 | 0.00 | 56 | 1017.0 |
| 20260831151614 | 33 | 0 | 1.6 | 6.4 | 0.00 | 0.00 | 0.00 | 54 | 1016.8 |
| 20260831151056 | 32 | 0 | 0.0 | 4.8 | 0.00 | 0.00 | 0.00 | 59 | 1017.1 |
| 20260831150555 | 31 | 177 | 1.6 | 6.4 | 0.00 | 0.00 | 0.00 | 59 | 1016.9 |
| 20260831150106 | 31 | 0 | 1.6 | 6.4 | 0.00 | 0.00 | 0.00 | 61 | 1017.0 |
| 20260831145554 | 31 | 61 | 1.6 | 6.4 | 0.00 | 0.00 | 0.00 | 62 | 1017.0 |
| 20260831145057 | 30 | 352 | 0.0 | 6.4 | 0.00 | 0.00 | 0.00 | 65 | 1017.0 |
| 20260831144602 | 30 | 76 | 1.6 | 6.4 | 0.00 | 0.00 | 0.00 | 63 | 1016.9 |
| 20260831144056 | 30 | 101 | 1.6 | 6.4 | 0.00 | 0.00 | 0.00 | 64 | 1017.1 |
| 20260831143555 | 30 | 82 | 0.0 | 6.4 | 0.00 | 0.00 | 0.00 | 64 | 1017.1 |
| 20260831143114 | 30 | 98 | 0.0 | 11.3 | 0.00 | 0.00 | 0.00 | 65 | 1017.1 |
| 20260831142556 | 30 | 273 | 1.6 | 11.3 | 0.00 | 0.00 | 0.00 | 66 | 1017.0 |
| 20260831142059 | 29 | 173 | 1.6 | 11.3 | 0.00 | 0.00 | 0.00 | 67 | 1017.1 |
| 20260831141609 | 28 | 61 | 1.6 | 9.7 | 0.00 | 0.00 | 0.00 | 69 | 1017.0 |
| 20260831141055 | 28 | 61 | 1.6 | 9.7 | 0.00 | 0.00 | 0.00 | 70 | 1017.1 |
| 20260831140555 | 28 | 55 | 1.6 | 8.0 | 0.00 | 0.00 | 0.00 | 71 | 1017.0 |
| 20260831140109 | 27 | 39 | 1.6 | 8.0 | 0.00 | 0.00 | 0.00 | 72 | 1017.0 |
| 20260831135555 | 27 | 72 | 1.6 | 8.0 | 0.00 | 0.00 | 0.00 | 73 | 1017.0 |
| 20260831135055 | 27 | 28 | 1.6 | 6.4 | 0.00 | 0.00 | 0.00 | 74 | 1016.8 |
| 20260831134604 | 26 | 55 | 0.0 | 4.8 | 0.00 | 0.00 | 0.00 | 75 | 1016.9 |
| 20260831134054 | 26 | 0 | 1.6 | 6.4 | 0.00 | 0.00 | 0.00 | 76 | 1016.7 |
| 20260831133556 | 26 | 46 | 1.6 | 8.0 | 0.00 | 0.00 | 0.00 | 76 | 1016.5 |
| 20260831133102 | 26 | 39 | 1.6 | 8.0 | 0.00 | 0.00 | 0.00 | 77 | 1016.5 |
| 20260831132558 | 25 | 71 | 1.6 | 8.0 | 0.00 | 0.00 | 0.00 | 78 | 1016.5 |
| 20260831132055 | 25 | 61 | 1.6 | 6.4 | 0.00 | 0.00 | 0.00 | 78 | 1016.3 |
| 20260831131610 | 25 | 212 | 1.6 | 6.4 | 0.00 | 0.00 | 0.00 | 79 | 1016.3 |
| 20260831131057 | 25 | 0 | 1.6 | 4.8 | 0.00 | 0.00 | 0.00 | 80 | 1016.3 |
| 20260831130558 | 24 | 45 | 1.6 | 4.8 | 0.00 | 0.00 | 0.00 | 80 | 1016.3 |
| 20260831130127 | 24 | 0 | 0.0 | 4.8 | 0.00 | 0.00 | 0.00 | 81 | 1016.2 |
| 20260831125555 | 24 | 58 | 0.0 | 3.2 | 0.00 | 0.00 | 0.00 | 81 | 1016.2 |
| 20260831125056 | 23 | 0 | 0.0 | 3.2 | 0.00 | 0.00 | 0.00 | 82 | 1016.1 |
| 20260831124605 | 23 | 0 | 0.0 | 1.6 | 0.00 | 0.00 | 0.00 | 82 | 1015.9 |
| 20260831124055 | 23 | 0 | 0.0 | 1.6 | 0.00 | 0.00 | 0.00 | 82 | 1015.8 |
| 20260831123554 | 23 | 0 | 0.0 | 1.6 | 0.00 | 0.00 | 0.00 | 82 | 1015.9 |
| 20260831123103 | 23 | 0 | 0.0 | 0.0 | 0.00 | 0.00 | 0.00 | 82 | 1015.8 |
| 20260831122554 | 23 | 0 | 0.0 | 0.0 | 0.00 | 0.00 | 0.00 | 82 | 1015.8 |
| 20260831122055 | 23 | 0 | 0.0 | 0.0 | 0.00 | 0.00 | 0.00 | 82 | 1015.7 |
| 20260831121615 | 23 | 0 | 0.0 | 0.0 | 0.00 | 0.00 | 0.00 | 82 | 1015.5 |
| 20260831121058 | 23 | 0 | 0.0 | 1.6 | 0.00 | 0.00 | 0.00 | 81 | 1015.6 |
| 20260831120555 | 23 | 0 | 0.0 | 1.6 | 0.00 | 0.00 | 0.00 | 81 | 1015.5 |
| 20260831115554 | 23 | 0 | 0.0 | 0.0 | 0.00 | 0.00 | 0.00 | 81 | 1015.4 |
| 20260831115054 | 23 | 0 | 0.0 | 1.6 | 0.00 | 0.00 | 0.00 | 81 | 1015.3 |
| 20260831114607 | 23 | 0 | 0.0 | 1.6 | 0.00 | 0.00 | 0.00 | 80 | 1015.3 |
| 20260831114056 | 23 | 0 | 0.0 | 0.0 | 0.00 | 0.00 | 0.00 | 80 | 1015.3 |
| 20260831113556 | 23 | 0 | 0.0 | 0.0 | 0.00 | 0.00 | 0.00 | 80 | 1015.2 |
| 20260831113103 | 23 | 0 | 0.0 | 0.0 | 0.00 | 0.00 | 0.00 | 80 | 1015.1 |
| 20260831112556 | 23 | 0 | 0.0 | 0.0 | 0.00 | 0.00 | 0.00 | 80 | 1015.2 |
| 20260831112055 | 23 | 0 | 0.0 | 0.0 | 0.00 | 0.00 | 0.00 | 79 | 1015.2 |
| 20260831111605 | 23 | 0 | 0.0 | 0.0 | 0.00 | 0.00 | 0.00 | 79 | 1015.0 |
| 20260831111056 | 23 | 0 | 0.0 | 0.0 | 0.00 | 0.00 | 0.00 | 79 | 1014.9 |
| 20260831110557 | 23 | 0 | 0.0 | 0.0 | 0.00 | 0.00 | 0.00 | 78 | 1014.9 |
| 20260831110107 | 23 | 0 | 0.0 | 0.0 | 0.00 | 0.00 | 0.00 | 78 | 1014.9 |
| 20260831105555 | 24 | 0 | 0.0 | 0.0 | 0.00 | 0.00 | 0.00 | 77 | 1014.9 |
| 20260831105055 | 24 | 0 | 0.0 | 0.0 | 0.00 | 0.00 | 0.00 | 77 | 1014.9 |
| 20260831104604 | 24 | 0 | 0.0 | 0.0 | 0.00 | 0.00 | 0.00 | 77 | 1014.7 |
| 20260831104055 | 24 | 0 | 0.0 | 0.0 | 0.00 | 0.00 | 0.00 | 76 | 1015.0 |
| 20260831103557 | 25 | 0 | 0.0 | 3.2 | 0.00 | 0.00 | 0.00 | 76 | 1014.8 |
| 20260831103103 | 25 | 0 | 0.0 | 3.2 | 0.00 | 0.00 | 0.00 | 76 | 1014.8 |
| 20260831102558 | 25 | 0 | 0.0 | 1.6 | 0.00 | 0.00 | 0.00 | 76 | 1014.8 |
| 20260831102055 | 25 | 0 | 0.0 | 1.6 | 0.00 | 0.00 | 0.00 | 75 | 1014.9 |
| 20260831101609 | 25 | 0 | 0.0 | 1.6 | 0.00 | 0.00 | 0.00 | 75 | 1015.0 |
| 20260831101055 | 25 | 0 | 0.0 | 0.0 | 0.00 | 0.00 | 0.00 | 75 | 1014.9 |
| 20260831100555 | 25 | 0 | 0.0 | 0.0 | 0.00 | 0.00 | 0.00 | 75 | 1014.9 |
| 20260831100108 | 25 | 0 | 0.0 | 0.0 | 0.00 | 0.00 | 0.00 | 75 | 1015.0 |
| 20260831095554 | 25 | 0 | 0.0 | 0.0 | 0.00 | 0.00 | 0.00 | 75 | 1014.8 |
| 20260831095055 | 24 | 0 | 0.0 | 0.0 | 0.00 | 0.00 | 0.00 | 75 | 1014.8 |
| 20260831094632 | 24 | 0 | 0.0 | 1.6 | 0.00 | 0.00 | 0.00 | 74 | 1014.8 |
| 20260831094056 | 24 | 0 | 0.0 | 1.6 | 0.00 | 0.00 | 0.00 | 74 | 1014.8 |
| 20260831093555 | 25 | 0 | 0.0 | 0.0 | 0.00 | 0.00 | 0.00 | 74 | 1014.8 |
| 20260831093109 | 25 | 0 | 0.0 | 0.0 | 0.00 | 0.00 | 0.00 | 73 | 1014.7 |
| 20260831092554 | 25 | 0 | 0.0 | 0.0 | 0.00 | 0.00 | 0.00 | 73 | 1014.7 |
| 20260831092054 | 25 | 0 | 0.0 | 0.0 | 0.00 | 0.00 | 0.00 | 72 | 1014.6 |
| 20260831091617 | 25 | 0 | 0.0 | 0.0 | 0.00 | 0.00 | 0.00 | 72 | 1014.5 |
| 20260831091054 | 26 | 0 | 0.0 | 0.0 | 0.00 | 0.00 | 0.00 | 71 | 1014.6 |
| 20260831090555 | 26 | 0 | 0.0 | 1.6 | 0.00 | 0.00 | 0.00 | 71 | 1014.4 |
| 20260831090105 | 26 | 0 | 0.0 | 1.6 | 0.00 | 0.00 | 0.00 | 71 | 1014.5 |
| 20260831085554 | 26 | 0 | 0.0 | 1.6 | 0.00 | 0.00 | 0.00 | 71 | 1014.6 |
| 20260831085056 | 26 | 0 | 0.0 | 0.0 | 0.00 | 0.00 | 0.00 | 71 | 1014.4 |
| 20260831084616 | 26 | 0 | 0.0 | 0.0 | 0.00 | 0.00 | 0.00 | 70 | 1014.5 |
| 20260831084054 | 26 | 0 | 0.0 | 0.0 | 0.00 | 0.00 | 0.00 | 69 | 1014.5 |
| 20260831083554 | 26 | 0 | 0.0 | 0.0 | 0.00 | 0.00 | 0.00 | 69 | 1014.4 |
| 20260831083109 | 27 | 0 | 0.0 | 1.6 | 0.00 | 0.00 | 0.00 | 68 | 1014.3 |
| 20260831082554 | 27 | 0 | 0.0 | 3.2 | 0.00 | 0.00 | 0.00 | 68 | 1014.3 |
| 20260831082057 | 27 | 200 | 0.0 | 3.2 | 0.00 | 0.00 | 0.00 | 68 | 1014.4 |
| 20260831081605 | 26 | 194 | 0.0 | 4.8 | 0.00 | 0.00 | 0.00 | 68 | 1014.3 |
| 20260831081053 | 26 | 219 | 0.0 | 4.8 | 0.00 | 0.00 | 0.00 | 67 | 1014.3 |
| 20260831080553 | 26 | 0 | 0.0 | 4.8 | 0.00 | 0.00 | 0.00 | 67 | 1014.6 |
| 20260831080103 | 27 | 182 | 0.0 | 4.8 | 0.00 | 0.00 | 0.00 | 66 | 1014.6 |
| 20260831075554 | 26 | 0 | 0.0 | 4.8 | 0.00 | 0.00 | 0.00 | 66 | 1014.6 |
| 20260831075054 | 27 | 0 | 0.0 | 3.2 | 0.00 | 0.00 | 0.00 | 66 | 1014.5 |
| 20260831074605 | 27 | 175 | 0.0 | 3.2 | 0.00 | 0.00 | 0.00 | 65 | 1014.5 |
| 20260831074055 | 27 | 0 | 0.0 | 4.8 | 0.00 | 0.00 | 0.00 | 65 | 1014.5 |
| 20260831073554 | 27 | 0 | 0.0 | 4.8 | 0.00 | 0.00 | 0.00 | 64 | 1014.5 |
| 20260831073105 | 26 | 0 | 0.0 | 3.2 | 0.00 | 0.00 | 0.00 | 64 | 1014.7 |
| 20260831072557 | 26 | 0 | 0.0 | 3.2 | 0.00 | 0.00 | 0.00 | 64 | 1014.6 |
| 20260831072057 | 26 | 0 | 0.0 | 3.2 | 0.00 | 0.00 | 0.00 | 64 | 1014.6 |
| 20260831071615 | 26 | 0 | 0.0 | 4.8 | 0.00 | 0.00 | 0.00 | 64 | 1014.5 |
| 20260831071057 | 26 | 17 | 0.0 | 4.8 | 0.00 | 0.00 | 0.00 | 63 | 1014.5 |
| 20260831070557 | 26 | 0 | 0.0 | 3.2 | 0.00 | 0.00 | 0.00 | 63 | 1014.6 |
| 20260831070104 | 26 | 0 | 0.0 | 3.2 | 0.00 | 0.00 | 0.00 | 62 | 1014.6 |
| 20260831065559 | 26 | 0 | 0.0 | 3.2 | 0.00 | 0.00 | 0.00 | 62 | 1014.6 |
| 20260831065057 | 27 | 0 | 0.0 | 3.2 | 0.00 | 0.00 | 0.00 | 62 | 1014.4 |
| 20260831064615 | 27 | 195 | 0.0 | 4.8 | 0.00 | 0.00 | 0.00 | 61 | 1014.5 |
| 20260831064055 | 27 | 0 | 0.0 | 4.8 | 0.00 | 0.00 | 0.00 | 61 | 1014.6 |
| 20260831063556 | 27 | 0 | 0.0 | 4.8 | 0.00 | 0.00 | 0.00 | 61 | 1014.7 |
| 20260831063117 | 27 | 0 | 0.0 | 4.8 | 0.00 | 0.00 | 0.00 | 61 | 1014.6 |
| 20260831062556 | 27 | 0 | 0.0 | 4.8 | 0.00 | 0.00 | 0.00 | 61 | 1014.6 |
| 20260831062056 | 27 | 0 | 0.0 | 4.8 | 0.00 | 0.00 | 0.00 | 60 | 1014.7 |
| 20260831061608 | 27 | 236 | 0.0 | 4.8 | 0.00 | 0.00 | 0.00 | 60 | 1014.6 |
| 20260831061059 | 26 | 0 | 0.0 | 3.2 | 0.00 | 0.00 | 0.00 | 60 | 1014.7 |
| 20260831060556 | 26 | 0 | 0.0 | 1.6 | 0.00 | 0.00 | 0.00 | 61 | 1014.6 |
| 20260831060113 | 26 | 0 | 0.0 | 0.0 | 0.00 | 0.00 | 0.00 | 61 | 1014.7 |
| 20260831055556 | 26 | 0 | 0.0 | 0.0 | 0.00 | 0.00 | 0.00 | 61 | 1014.6 |
| 20260831055058 | 26 | 0 | 0.0 | 0.0 | 0.00 | 0.00 | 0.00 | 61 | 1014.6 |
| 20260831054605 | 26 | 0 | 0.0 | 0.0 | 0.00 | 0.00 | 0.00 | 60 | 1014.5 |
| 20260831054059 | 26 | 0 | 0.0 | 1.6 | 0.00 | 0.00 | 0.00 | 59 | 1014.5 |
| 20260831053557 | 27 | 0 | 0.0 | 1.6 | 0.00 | 0.00 | 0.00 | 59 | 1014.5 |
| 20260831053105 | 27 | 0 | 0.0 | 1.6 | 0.00 | 0.00 | 0.00 | 59 | 1014.5 |
| 20260831052555 | 27 | 0 | 0.0 | 1.6 | 0.00 | 0.00 | 0.00 | 58 | 1014.4 |
| 20260831052056 | 27 | 0 | 0.0 | 1.6 | 0.00 | 0.00 | 0.00 | 58 | 1014.4 |
| 20260831051614 | 27 | 0 | 0.0 | 1.6 | 0.00 | 0.00 | 0.00 | 58 | 1014.5 |
| 20260831051056 | 27 | 0 | 0.0 | 1.6 | 0.00 | 0.00 | 0.00 | 58 | 1014.4 |
| 20260831050556 | 27 | 0 | 0.0 | 0.0 | 0.00 | 0.00 | 0.00 | 58 | 1014.5 |
| 20260831050111 | 27 | 0 | 0.0 | 0.0 | 0.00 | 0.00 | 0.00 | 58 | 1014.3 |
| 20260831045556 | 27 | 0 | 0.0 | 0.0 | 0.00 | 0.00 | 0.00 | 58 | 1014.3 |
| 20260831045056 | 27 | 0 | 0.0 | 0.0 | 0.00 | 0.00 | 0.00 | 58 | 1014.2 |
| 20260831044606 | 27 | 0 | 0.0 | 0.0 | 0.00 | 0.00 | 0.00 | 57 | 1014.2 |
| 20260831044055 | 27 | 0 | 0.0 | 0.0 | 0.00 | 0.00 | 0.00 | 57 | 1014.3 |
| 20260831043556 | 27 | 0 | 0.0 | 0.0 | 0.00 | 0.00 | 0.00 | 56 | 1014.2 |
| 20260831043103 | 27 | 0 | 0.0 | 0.0 | 0.00 | 0.00 | 0.00 | 56 | 1014.2 |
| 20260831042556 | 28 | 0 | 0.0 | 0.0 | 0.00 | 0.00 | 0.00 | 56 | 1014.3 |
| 20260831042056 | 28 | 0 | 0.0 | 0.0 | 0.00 | 0.00 | 0.00 | 55 | 1014.2 |
| 20260831041606 | 28 | 0 | 0.0 | 0.0 | 0.00 | 0.00 | 0.00 | 55 | 1014.0 |
| 20260831041059 | 28 | 0 | 0.0 | 0.0 | 0.00 | 0.00 | 0.00 | 55 | 1014.0 |
| 20260831040556 | 28 | 0 | 0.0 | 0.0 | 0.00 | 0.00 | 0.00 | 54 | 1014.2 |
| 20260831040110 | 28 | 0 | 0.0 | 0.0 | 0.00 | 0.00 | 0.00 | 54 | 1014.1 |
| 20260831035556 | 28 | 0 | 0.0 | 0.0 | 0.00 | 0.00 | 0.00 | 54 | 1014.0 |
| 20260831035056 | 28 | 0 | 0.0 | 0.0 | 0.00 | 0.00 | 0.00 | 54 | 1013.9 |
| 20260831034601 | 28 | 0 | 0.0 | 0.0 | 0.00 | 0.00 | 0.00 | 54 | 1013.9 |
| 20260831034056 | 28 | 0 | 0.0 | 0.0 | 0.00 | 0.00 | 0.00 | 53 | 1013.9 |
| 20260831033600 | 28 | 0 | 0.0 | 0.0 | 0.00 | 0.00 | 0.00 | 53 | 1013.9 |
| 20260831033103 | 29 | 0 | 0.0 | 0.0 | 0.00 | 0.00 | 0.00 | 52 | 1013.8 |
| 20260831032557 | 29 | 0 | 0.0 | 0.0 | 0.00 | 0.00 | 0.00 | 51 | 1013.8 |
| 20260831032127 | 30 | 0 | 0.0 | 1.6 | 0.00 | 0.00 | 0.00 | 50 | 1013.8 |
| 20260831031605 | 30 | 0 | 0.0 | 3.2 | 0.00 | 0.00 | 0.00 | 50 | 1013.6 |
| 20260831031056 | 30 | 0 | 0.0 | 3.2 | 0.00 | 0.00 | 0.00 | 49 | 1013.6 |
| 20260831030556 | 30 | 0 | 0.0 | 3.2 | 0.00 | 0.00 | 0.00 | 48 | 1013.6 |
| 20260831030105 | 30 | 197 | 0.0 | 3.2 | 0.00 | 0.00 | 0.00 | 48 | 1013.6 |
| 20260831025556 | 30 | 69 | 0.0 | 3.2 | 0.00 | 0.00 | 0.00 | 47 | 1013.6 |
| 20260831025100 | 31 | 252 | 0.0 | 3.2 | 0.00 | 0.00 | 0.00 | 47 | 1013.5 |
| 20260831024621 | 31 | 0 | 0.0 | 3.2 | 0.00 | 0.00 | 0.00 | 46 | 1013.5 |
| 20260831024057 | 31 | 0 | 0.0 | 3.2 | 0.00 | 0.00 | 0.00 | 45 | 1013.3 |
| 20260831023554 | 31 | 48 | 0.0 | 4.8 | 0.00 | 0.00 | 0.00 | 45 | 1013.2 |
| 20260831023110 | 31 | 0 | 0.0 | 4.8 | 0.00 | 0.00 | 0.00 | 44 | 1013.1 |
| 20260831022556 | 31 | 70 | 0.0 | 4.8 | 0.00 | 0.00 | 0.00 | 44 | 1013.1 |
| 20260831022056 | 31 | 265 | 1.6 | 4.8 | 0.00 | 0.00 | 0.00 | 43 | 1012.9 |
| 20260831021609 | 32 | 0 | 1.6 | 4.8 | 0.00 | 0.00 | 0.00 | 43 | 1012.9 |
| 20260831021056 | 32 | 48 | 1.6 | 4.8 | 0.00 | 0.00 | 0.00 | 43 | 1012.8 |
| 20260831020556 | 32 | 27 | 0.0 | 3.2 | 0.00 | 0.00 | 0.00 | 43 | 1012.8 |
| 20260831020115 | 32 | 74 | 1.6 | 4.8 | 0.00 | 0.00 | 0.00 | 43 | 1012.7 |
| 20260831015555 | 32 | 0 | 0.0 | 4.8 | 0.00 | 0.00 | 0.00 | 42 | 1012.6 |
| 20260831015054 | 32 | 148 | 0.0 | 4.8 | 0.00 | 0.00 | 0.00 | 42 | 1012.5 |